Weather History for Belleville, IL

Change the Weather History Date:

Thursday, December 13, 2012

  Actual Average Record
Temperature  
Mean Temperature 38 °F -  
Max Temperature 52 °F 45 °F 69 °F (1948)
Min Temperature 24 °F 27 °F -1 °F (1962)
Degree Days  
Heating Degree Days 27    
Moisture  
Dew Point 27 °F    
Average Humidity 73    
Maximum Humidity 100    
Minimum Humidity 35    
Precipitation  
Precipitation 0.00 in - - ()
Sea Level Pressure  
Sea Level Pressure 30.29 in    
Wind  
Wind Speed 5 mph (South)    
Max Wind Speed 14 mph    
Max Gust Speed -    
Visibility 10 miles    
Events      
Averages and records for this station are not official NWS values.
T = Trace of Precipitation, MM = Missing Value Source: NWS Daily Summary

Daily Weather History Graph

Daily Weather History Graph

Search for Another Location

Airport:

Trip Planner

Search our weather history database for the weather conditions in past years. The results will help you decide how hot, cold, wet, or windy it might be!

Date:

Astronomy

Dec. 13, 2012 Rise Set
Actual Time 7:08 AM CST 4:38 PM CST
Civil Twilight 6:38 AM CST 5:08 PM CST
Nautical Twilight 6:05 AM CST 5:41 PM CST
Astronomical Twilight 5:33 AM CST 6:14 PM CST
Moon 7:17 AM CST (12/13) 5:21 PM CST (12/13)
Length of Visible Light 10h 29m
Length of Day
9h 30m
New Moon, 0% of the Moon is Illuminated
Dec 13
New Moon
Dec 19
First Quarter
Dec 28
Full
Jan 4
Last Quarter
Jan 11
New

Hourly Weather History & Observations

Time (CST) Temp. Windchill Dew Point Humidity Pressure Visibility Wind Dir Wind Speed Gust Speed Precip Events Conditions
12:55 AM 29.8 °F 26.3 °F 27.3 °F 90% 30.34 in 10.0 mi South 3.5 mph - N/A   Clear
1:55 AM 26.8 °F - 26.2 °F 98% 30.34 in 10.0 mi Calm Calm - N/A   Clear
2:55 AM 26.4 °F - 25.0 °F 94% 30.34 in 10.0 mi Calm Calm - N/A   Clear
3:55 AM 27.0 °F - 25.3 °F 94% 30.33 in 10.0 mi Calm Calm - N/A   Clear
4:55 AM 26.6 °F - 25.9 °F 97% 30.34 in 10.0 mi Calm Calm - N/A   Clear
5:40 AM 24.8 °F - 24.8 °F 100% 30.35 in 9.0 mi Calm Calm - N/A   Clear
5:53 AM 26.6 °F - 26.6 °F 100% 30.35 in 9.0 mi Calm Calm - N/A   Clear
5:55 AM 26.1 °F - 25.5 °F 98% 30.35 in 9.0 mi Calm Calm - N/A   Clear
6:55 AM 25.2 °F - 23.9 °F 95% 30.36 in 9.0 mi Calm Calm - N/A   Clear
7:55 AM 28.8 °F 21.7 °F 27.0 °F 93% 30.35 in 10.0 mi SSE 6.9 mph - N/A   Clear
8:55 AM 35.1 °F 28.6 °F 28.8 °F 78% 30.35 in 10.0 mi South 8.1 mph - N/A   Clear
9:55 AM 41.0 °F 33.9 °F 28.9 °F 62% 30.35 in 10.0 mi South 12.7 mph - N/A   Clear
10:55 AM 44.8 °F 38.3 °F 28.6 °F 53% 30.34 in 10.0 mi South 13.8 mph - N/A   Clear
11:55 AM 49.1 °F - 27.9 °F 44% 30.30 in 10.0 mi South 11.5 mph - N/A   Partly Cloudy
12:55 PM 50.7 °F - 27.1 °F 40% 30.27 in 10.0 mi South 13.8 mph - N/A   Clear
1:55 PM 52.2 °F - 27.5 °F 39% 30.24 in 10.0 mi South 12.7 mph - N/A   Clear
2:55 PM 52.9 °F - 25.9 °F 35% 30.23 in 10.0 mi South 13.8 mph - N/A   Clear
3:55 PM 50.5 °F - 26.6 °F 39% 30.22 in 10.0 mi South 12.7 mph - N/A   Clear
4:55 PM 44.8 °F 39.0 °F 26.6 °F 49% 30.22 in 10.0 mi South 11.5 mph - N/A   Clear
6:55 PM 41.2 °F 35.0 °F 28.2 °F 60% 30.22 in 10.0 mi South 10.4 mph - N/A   Clear
7:55 PM 40.3 °F 33.9 °F 28.9 °F 64% 30.22 in 10.0 mi South 10.4 mph - N/A   Clear
8:55 PM 38.3 °F 33.9 °F 29.7 °F 71% 30.21 in 10.0 mi South 5.8 mph - N/A   Clear
9:55 PM 36.1 °F 29.9 °F 28.8 °F 75% 30.22 in 10.0 mi South 8.1 mph - N/A   Clear
10:55 PM 37.6 °F 35.1 °F 28.9 °F 71% 30.22 in 10.0 mi South 3.5 mph - N/A   Clear
11:55 PM 33.3 °F - 28.0 °F 81% 30.23 in 10.0 mi Calm Calm - N/A   Clear